Wind_Speed
8 11 12 11 14 19 18 23 23 17 15 22 25 25 21 16 19 15 26 25 33 38 36 39 34 17 19 18 14 11 13 13 14 13 15 14 13 12 12 13 16 20 18 13
13 15 6 11 15 19 20 23 26 23 17 13 15 24 27 25 19 23 25 27 34 34 37 38 38 36 16 18 16 14 11 12 12 13 14 12 12 12 14 15 16 13 16 13
17 7 12 18 19 21 19 26 23 24 14 15 16 15 14 12 1 5 16 26 26 26 29 30 30 22 14 17 17 13 11 11 12 11 11 13 14 13 14 16 14 14 17 15
20 18 14 20 27 26 25 16 21 17 18 21 20 11 3 3 7 11 13 19 20 23 24 27 23 17 19 17 16 15 13 12 12 9 13 12 13 13 15 15 16 14 11 9
23 19 19 23 23 22 26 5 8 11 14 22 23 7 7 8 2 1 8 18 17 21 25 15 13 14 15 16 20 17 15 13 9 11 12 14 14 13 16 17 15 15 14 11
20 19 23 25 21 7 15 21 17 18 16 6 8 9 5 6 6 12 11 12 17 28 19 14 10 4 14 16 20 16 15 11 9 11 14 16 14 15 16 15 15 17 16 17
14 10 9 6 9 16 20 20 8 6 4 7 9 8 3 3 7 9 17 16 30 30 25 18 20 22 31 29 21 12 10 10 10 13 16 15 16 15 12 14 16 17 18 18
20 9 3 7 13 14 17 15 5 6 4 6 11 4 2 5 7 11 21 21 20 22 22 24 31 32 21 23 17 7 9 8 6 11 12 12 10 10 13 17 19 18 17 16
17 14 12 9 14 13 9 13 19 10 5 3 3 4 3 6 6 16 18 18 28 24 17 16 23 28 20 10 11 7 9 4 4 5 6 6 4 6 8 10 13 14 13 12
16 15 17 21 18 18 14 18 13 10 2 3 6 5 8 10 13 15 20 27 25 23 23 21 14 24 26 20 10 8 4 2 1 2 3 8 4 5 6 6 9 10 11 12
10 15 18 20 23 21 17 9 13 5 6 6 2 6 11 15 12 17 21 23 18 13 14 8 10 27 26 17 9 7 3 4 4 6 11 11 9 8 10 11 11 11 10 9
10 10 15 22 22 13 6 4 12 9 5 9 5 9 9 15 16 17 19 15 14 12 11 5 8 28 24 17 10 4 8 8 9 11 12 12 9 9 9 10 12 12 11 11
15 12 9 12 8 6 13 11 17 15 11 8 3 5 17 21 19 17 18 19 12 8 4 6 9 17 19 13 5 7 9 13 16 15 15 15 10 10 9 8 10 9 12 14
25 19 11 10 14 15 17 16 17 18 15 14 15 17 20 19 19 19 20 10 5 3 3 10 18 15 13 13 8 2 5 7 9 14 16 16 12 10 9 10 10 10 13 15
29 24 18 20 16 14 18 19 20 23 26 18 17 16 20 20 17 18 9 3 3 4 10 20 21 22 18 14 10 9 7 8 7 12 15 17 14 13 14 15 11 11 14 16
31 22 15 18 18 16 18 23 19 14 16 15 15 19 18 14 15 8 6 2 6 7 17 20 13 16 19 15 14 14 8 16 15 7 25 23 22 20 16 15 16 17 20 23
19 15 12 11 17 15 19 18 15 21 19 13 17 17 11 11 9 1 4 7 13 13 17 18 16 15 15 16 23 16 18 19 11 22 25 20 19 14 17 20 24 28 30 31
13 16 15 13 18 2 8 13 11 15 15 13 12 10 9 8 4 6 4 4 10 13 13 14 20 13 17 12 5 10 13 15 15 21 22 20 20 22 26 28 31 33 35 37
27 18 13 5 6 11 14 12 12 14 16 14 12 8 9 4 8 7 7 7 7 9 8 7 6 6 9 10 8 9 12 16 20 22 22 22 23 26 29 31 35 38 39 41
18 23 24 13 5 3 4 9 14 10 16 17 11 12 10 7 10 7 7 3 7 0 1 3 6 8 10 11 12 14 17 19 21 22 23 24 26 29 32 36 39 40 40 40
27 28 26 23 10 6 12 14 16 9 19 18 15 14 14 12 9 9 11 10 6 5 6 7 7 10 11 13 16 20 20 21 22 24 25 28 31 34 35 37 38 40 41 44
21 20 21 14 15 11 17 17 10 14 13 11 17 19 16 10 14 14 14 14 13 10 12 13 14 15 16 19 21 22 23 24 25 26 28 32 33 34 37 41 46 48 46 46
9 8 2 6 16 15 19 24 16 15 16 19 18 26 22 22 20 20 19 17 16 19 21 20 19 20 22 23 23 25 26 28 29 32 34 36 37 40 44 48 48 45 44 42
14 13 13 17 20 26 23 15 14 23 21 19 26 29 21 23 21 21 22 22 25 26 24 24 22 28 29 29 29 30 31 33 36 39 40 44 46 48 48 42 43 43 40 38
12 15 20 23 18 19 18 19 19 19 19 12 25 20 19 22 24 25 25 27 29 27 30 31 32 31 30 34 36 36 36 38 40 40 44 46 45 44 43 42 39 38 36 36
19 26 28 27 18 19 18 18 18 19 14 6 10 15 19 20 26 22 24 28 30 32 33 34 33 34 33 35 37 41 44 44 43 42 42 44 45 43 40 38 33 32 32 31
Wind_Direction
245 267 271 296 306 303 290 285 292 308 305 274 274 276 298 297 257 269 251 245 247 251 272 283 302 342 229 249 252 253 254 259 259 256 254 242 241 239 247 261 266 273 288 298
248 253 261 280 282 287 279 279 289 306 339 311 299 281 288 296 270 259 267 252 261 259 273 288 305 328 227 235 242 248 255 256 263 249 250 252 250 253 251 262 276 282 290 293
245 254 303 280 289 293 284 278 293 287 317 341 320 281 304 288 287 300 258 256 252 273 287 293 306 309 225 243 234 254 259 263 260 256 250 246 248 262 275 279 282 289 289 303
262 276 290 301 279 285 278 314 296 265 324 324 322 306 294 82 129 194 235 266 273 275 274 284 284 257 228 250 232 249 259 262 261 239 249 258 258 274 288 293 296 289 293 313
263 277 289 285 272 289 286 332 308 324 323 328 330 324 138 173 166 292 322 314 314 317 304 309 265 223 223 243 246 248 262 266 270 244 246 266 275 287 287 291 295 302 311 313
280 284 291 291 298 270 300 292 299 311 324 342 0 341 281 282 327 319 302 299 286 318 307 264 238 263 266 253 240 253 271 265 253 240 255 269 274 282 287 297 306 305 308 316
279 298 330 359 311 289 303 320 314 328 315 236 309 311 269 261 303 309 309 300 304 308 301 269 263 298 261 244 236 240 273 253 251 243 254 263 272 288 298 295 295 307 315 314
270 298 321 348 337 331 324 317 304 236 222 259 302 233 261 241 289 314 317 327 330 317 312 308 237 299 239 190 217 242 259 250 240 244 259 275 288 300 298 299 296 297 299 308
246 252 296 305 312 295 302 330 319 288 274 265 253 273 175 247 295 323 327 320 323 318 311 288 283 262 188 181 174 215 221 206 207 224 226 233 220 264 287 281 291 301 309 314
230 259 273 286 310 302 285 303 308 303 254 273 265 261 264 250 295 310 327 325 322 316 316 321 328 249 222 171 174 196 200 179 169 199 135 119 101 27 0 334 323 329 333 334
256 267 281 281 302 313 307 292 314 274 244 190 244 263 292 291 301 320 328 333 335 350 337 322 321 137 149 157 149 153 147 99 128 94 51 48 41 17 9 12 11 6 1 4
256 261 281 288 301 293 324 48 341 284 259 236 247 287 287 290 305 325 329 333 331 348 359 7 187 164 149 154 131 97 57 75 55 47 38 36 31 17 7 11 5 1 355 354
248 248 277 295 296 275 272 265 327 306 277 243 207 279 296 305 316 324 327 321 323 335 321 292 215 176 137 153 166 55 51 38 32 25 19 13 4 359 349 351 345 335 350 354
239 238 233 247 287 293 285 278 303 291 273 276 272 292 301 307 311 317 326 309 287 284 227 173 164 172 186 174 163 191 16 4 13 12 0 350 338 333 334 313 308 339 347 343
237 245 263 293 296 293 279 277 283 289 275 262 285 293 304 303 310 322 342 80 183 179 161 154 172 176 176 177 201 204 226 266 309 346 339 327 317 304 303 286 306 330 329 330
228 254 264 271 290 294 296 266 278 267 240 261 281 287 304 305 314 314 328 155 136 133 162 169 163 178 183 199 224 225 249 243 264 258 317 311 307 296 287 309 321 319 318 322
238 252 260 264 286 286 294 286 269 236 259 277 282 297 296 308 306 285 133 136 113 131 162 181 199 205 216 245 239 242 257 243 303 300 301 296 289 300 310 315 316 316 317 315
254 267 264 278 290 256 288 282 261 261 274 282 293 289 289 302 242 173 200 163 131 145 173 205 222 238 239 213 287 257 269 292 292 285 291 293 301 312 316 315 311 308 307 306
258 265 263 260 248 275 280 279 273 309 297 291 288 289 308 251 197 202 186 202 178 162 190 223 228 210 232 254 258 256 272 281 287 292 293 296 304 306 305 303 301 300 299 298
220 242 248 238 231 238 335 304 240 273 318 300 285 272 279 244 247 260 238 259 197 213 3 252 238 252 257 270 278 280 282 282 286 284 285 288 292 295 298 298 296 295 293 293
225 231 234 249 239 251 264 284 297 275 306 253 259 255 258 273 280 282 278 301 296 281 297 307 271 270 270 272 278 279 276 274 276 279 283 288 291 293 294 293 293 293 294 296
227 231 238 264 268 255 278 280 293 305 286 249 236 246 251 245 254 272 286 295 294 280 264 286 292 288 277 266 266 269 272 273 274 278 285 289 292 294 296 299 299 297 297 297
228 208 179 299 281 284 280 295 293 312 281 255 243 230 235 243 265 263 266 278 274 259 256 269 282 291 282 270 269 269 272 274 275 279 285 290 291 293 294 298 297 296 295 295
276 301 292 265 269 270 282 278 293 314 308 260 242 237 239 241 244 259 268 265 255 251 280 265 277 291 290 279 275 272 270 273 278 280 285 289 290 293 294 294 295 293 294 295
276 300 277 270 279 264 280 274 293 308 316 258 245 272 246 232 240 246 258 249 247 260 266 274 281 305 303 287 282 275 273 276 274 280 288 290 292 293 291 293 293 294 293 289
274 270 280 276 281 287 284 272 294 310 313 268 249 218 230 231 230 247 248 260 268 277 275 279 284 296 299 298 293 286 280 284 287 289 290 292 294 292 292 295 293 289 289 286
Height
3190 3191 3189 3189 3189 3188 3186 3185 3184 3182 3183 3183 3177 3174 3173 3177 3173 3173 3169 3168 3166 3160 3159 3155 3151 3143 3161 3166 3168 3169 3170 3168 3166 3167 3166 3165 3163 3162 3162 3162 3161 3160 3158 3159
3189 3187 3185 3186 3187 3185 3183 3183 3179 3179 3177 3174 3171 3171 3170 3171 3170 3167 3168 3168 3166 3167 3159 3158 3156 3148 3143 3161 3166 3166 3166 3165 3164 3163 3165 3165 3165 3162 3161 3159 3157 3155 3154 3155
3184 3183 3184 3185 3183 3183 3180 3178 3176 3175 3172 3170 3167 3167 3166 3166 3168 3166 3166 3166 3165 3165 3161 3159 3154 3152 3153 3157 3160 3163 3163 3162 3160 3161 3161 3160 3160 3162 3160 3157 3155 3152 3150 3150
3181 3182 3183 3179 3179 3178 3177 3174 3172 3169 3169 3167 3165 3164 3164 3165 3165 3163 3162 3161 3162 3159 3157 3156 3153 3150 3152 3155 3157 3160 3161 3159 3157 3156 3157 3159 3158 3157 3157 3156 3152 3148 3146 3146
3176 3178 3179 3178 3175 3174 3173 3171 3169 3168 3165 3164 3164 3163 3164 3163 3162 3161 3159 3158 3157 3156 3154 3151 3151 3151 3151 3153 3155 3157 3156 3156 3153 3154 3154 3155 3154 3152 3151 3151 3149 3146 3142 3142
3174 3176 3176 3172 3172 3171 3170 3167 3166 3164 3162 3162 3162 3163 3161 3160 3158 3158 3156 3155 3152 3150 3148 3148 3142 3145 3151 3150 3153 3153 3151 3151 3148 3149 3151 3151 3150 3148 3146 3148 3147 3143 3140 3138
3171 3172 3171 3169 3169 3169 3167 3164 3161 3163 3163 3161 3159 3158 3156 3155 3154 3154 3155 3155 3151 3146 3142 3141 3138 3141 3138 3145 3150 3148 3147 3144 3145 3145 3147 3147 3148 3146 3144 3143 3143 3140 3136 3133
3170 3171 3170 3168 3167 3167 3166 3164 3162 3164 3162 3156 3155 3154 3155 3152 3150 3149 3148 3146 3145 3141 3138 3134 3128 3130 3132 3126 3144 3145 3143 3142 3141 3141 3144 3145 3144 3142 3138 3139 3138 3137 3133 3130
3167 3166 3166 3166 3166 3166 3163 3162 3161 3156 3153 3152 3151 3152 3152 3149 3149 3145 3144 3140 3137 3134 3131 3127 3126 3121 3102 3127 3135 3141 3142 3140 3140 3140 3140 3142 3141 3139 3137 3136 3136 3132 3129 3126
3163 3162 3161 3162 3164 3163 3160 3160 3157 3154 3153 3153 3147 3147 3147 3147 3146 3144 3141 3135 3129 3125 3121 3118 3108 3105 3109 3122 3136 3138 3139 3138 3138 3140 3142 3140 3138 3136 3135 3133 3134 3130 3126 3122
3160 3160 3159 3158 3160 3157 3153 3152 3154 3152 3149 3148 3149 3143 3142 3141 3140 3139 3136 3130 3125 3120 3116 3113 3114 3107 3114 3126 3133 3136 3136 3135 3136 3137 3137 3136 3134 3133 3132 3131 3130 3128 3126 3123
3157 3154 3152 3154 3154 3153 3151 3150 3151 3149 3146 3143 3141 3139 3137 3135 3134 3134 3131 3127 3123 3120 3117 3114 3115 3113 3121 3127 3131 3133 3131 3132 3133 3134 3134 3133 3133 3131 3130 3129 3128 3126 3125 3122
3155 3152 3151 3150 3152 3149 3147 3146 3146 3145 3142 3138 3138 3136 3133 3131 3129 3129 3128 3124 3120 3118 3117 3119 3121 3122 3122 3127 3130 3130 3130 3131 3131 3132 3131 3130 3130 3130 3129 3128 3127 3125 3123 3119
3150 3149 3148 3149 3146 3144 3141 3140 3141 3141 3138 3134 3132 3131 3129 3128 3126 3124 3122 3119 3118 3117 3116 3116 3118 3120 3121 3123 3126 3129 3130 3131 3131 3128 3129 3128 3128 3129 3128 3127 3125 3122 3120 3118
3145 3144 3145 3144 3142 3140 3138 3135 3134 3133 3132 3130 3128 3127 3126 3124 3123 3120 3118 3117 3115 3115 3115 3116 3119 3122 3125 3126 3127 3129 3129 3130 3129 3127 3126 3126 3126 3127 3127 3125 3121 3118 3117 3115
3139 3139 3137 3136 3136 3135 3131 3128 3127 3126 3126 3125 3124 3123 3123 3121 3118 3116 3115 3114 3113 3114 3115 3118 3122 3124 3126 3127 3127 3127 3128 3128 3125 3123 3123 3124 3124 3124 3123 3120 3117 3114 3113 3109
3138 3136 3132 3129 3129 3126 3125 3122 3122 3122 3122 3122 3120 3120 3118 3117 3115 3113 3114 3113 3112 3113 3116 3119 3121 3123 3124 3124 3124 3125 3124 3122 3122 3122 3122 3121 3121 3119 3116 3113 3110 3107 3104 3101
3132 3132 3129 3125 3127 3124 3120 3118 3120 3121 3120 3120 3120 3118 3116 3114 3112 3112 3111 3112 3112 3113 3116 3117 3118 3119 3120 3121 3120 3121 3120 3119 3119 3120 3119 3118 3115 3112 3108 3107 3105 3103 3099 3095
3125 3129 3129 3125 3123 3121 3120 3118 3119 3120 3120 3119 3118 3117 3114 3112 3111 3110 3110 3110 3112 3113 3114 3115 3116 3116 3117 3118 3118 3119 3117 3116 3116 3115 3113 3112 3108 3106 3103 3101 3099 3096 3091 3087
3117 3121 3126 3122 3120 3117 3116 3114 3114 3113 3117 3118 3114 3114 3109 3108 3108 3108 3108 3110 3111 3110 3111 3112 3113 3114 3114 3114 3113 3113 3113 3112 3110 3109 3107 3105 3102 3100 3097 3094 3091 3086 3082 3079
3113 3115 3114 3114 3114 3113 3113 3112 3112 3114 3107 3105 3108 3108 3104 3102 3103 3104 3105 3107 3108 3107 3107 3107 3108 3109 3108 3108 3108 3108 3108 3106 3105 3103 3101 3098 3096 3093 3090 3085 3080 3076 3073 3068
3110 3111 3109 3109 3108 3110 3109 3108 3109 3108 3103 3100 3103 3102 3101 3099 3097 3098 3099 3101 3103 3103 3103 3104 3104 3104 3104 3104 3104 3103 3101 3101 3099 3096 3093 3090 3088 3084 3080 3075 3071 3065 3061 3055
3108 3107 3104 3107 3108 3105 3104 3102 3101 3099 3098 3096 3095 3093 3091 3092 3093 3093 3094 3095 3097 3099 3099 3098 3099 3099 3100 3099 3097 3096 3094 3093 3091 3088 3084 3081 3077 3073 3068 3063 3057 3052 3048 3043
3101 3099 3096 3101 3100 3098 3096 3095 3094 3093 3090 3089 3088 3086 3087 3089 3089 3089 3088 3089 3092 3093 3094 3094 3093 3092 3091 3090 3089 3088 3085 3083 3080 3077 3072 3068 3065 3061 3056 3051 3045 3039 3035 3031
3093 3092 3097 3096 3095 3094 3092 3091 3089 3087 3083 3079 3082 3083 3081 3084 3084 3084 3084 3086 3088 3088 3089 3088 3087 3084 3082 3081 3080 3078 3075 3073 3068 3064 3060 3055 3052 3048 3044 3040 3034 3029 3025 3019
3091 3093 3092 3089 3090 3088 3088 3086 3084 3081 3080 3077 3077 3079 3079 3079 3081 3082 3082 3082 3082 3080 3079 3077 3076 3074 3072 3070 3068 3066 3063 3060 3056 3052 3048 3044 3040 3035 3031 3027 3023 3019 3014 3010